BCS8295 LEST-LEVT

Flight info

Callsign BCS8295
Flight time 0h 39m
Altitude 33000
Route LOMDA DCT SUSOS/N0380F340 N725 KOHDE
Aircraft B738/M-SDE2E3FGHIRWXY/LB1

Departure

Time 2026-05-05 17:11
Airport Santiago-Rosalía de Castro Airport (LEST)

Arrival

Time 2026-05-05 17:51
Airport Vitoria Airport (LEVT)
Time Latitude Longitude Altitude Speed Heading
2026-05-05 17:09 42.88386 -8.41318 1199 ft 14 kts 146°
2026-05-05 17:09 42.88372 -8.41299 1203 ft 14 kts 131°
2026-05-05 17:09 42.88361 -8.41263 1199 ft 8 kts 95°
2026-05-05 17:10 42.88366 -8.41235 1199 ft 8 kts 71°
2026-05-05 17:10 42.88376 -8.41197 1199 ft 9 kts 69°
2026-05-05 17:10 42.88417 -8.41111 1200 ft 12 kts 19°
2026-05-05 17:10 42.88481 -8.41126 1199 ft 13 kts 347°
2026-05-05 17:11 42.88880 -8.41260 1195 ft 105 kts 346°
2026-05-05 17:11 42.89756 -8.41540 1641 ft 138 kts 346°
2026-05-05 17:11 42.90691 -8.41826 2497 ft 142 kts 350°
2026-05-05 17:11 42.91772 -8.41647 2978 ft 177 kts 23°
2026-05-05 17:12 42.92659 -8.40334 3622 ft 205 kts 64°
2026-05-05 17:12 42.92955 -8.38413 4451 ft 213 kts 84°
2026-05-05 17:12 42.92877 -8.36251 4919 ft 244 kts 92°
2026-05-05 17:12 42.92731 -8.33878 5740 ft 259 kts 93°
2026-05-05 17:13 42.92472 -8.31349 6467 ft 276 kts 95°
2026-05-05 17:13 42.92266 -8.28718 7396 ft 282 kts 92°
2026-05-05 17:13 42.92100 -8.26037 8443 ft 286 kts 92°
2026-05-05 17:13 42.91936 -8.23313 9527 ft 292 kts 92°
2026-05-05 17:14 42.91765 -8.20519 9964 ft 304 kts 92°
2026-05-05 17:14 42.91581 -8.17592 10840 ft 315 kts 93°
2026-05-05 17:14 42.91381 -8.14475 11208 ft 346 kts 93°
2026-05-05 17:14 42.91159 -8.11109 11813 ft 364 kts 93°
2026-05-05 17:15 42.90920 -8.07538 12033 ft 392 kts 93°
2026-05-05 17:15 42.90665 -8.03800 12518 ft 407 kts 94°
2026-05-05 17:15 42.90396 -7.99920 13325 ft 414 kts 94°
2026-05-05 17:15 42.90121 -7.95990 14205 ft 419 kts 94°
2026-05-05 17:16 42.89842 -7.92017 15069 ft 423 kts 94°
2026-05-05 17:16 42.89559 -7.88005 15914 ft 428 kts 94°
2026-05-05 17:16 42.89272 -7.83937 16734 ft 433 kts 94°
2026-05-05 17:16 42.88980 -7.79827 17536 ft 439 kts 94°
2026-05-05 17:17 42.88683 -7.75660 18314 ft 444 kts 94°
2026-05-05 17:17 42.88382 -7.71443 18939 ft 450 kts 93°
2026-05-05 17:17 42.88074 -7.67162 19503 ft 457 kts 93°
2026-05-05 17:17 42.87761 -7.62823 20074 ft 463 kts 93°
2026-05-05 17:18 42.87441 -7.58426 20674 ft 469 kts 93°
2026-05-05 17:18 42.87115 -7.53972 21265 ft 474 kts 93°
2026-05-05 17:18 42.86786 -7.49484 21794 ft 479 kts 93°
2026-05-05 17:18 42.86449 -7.44934 22295 ft 485 kts 92°
2026-05-05 17:19 42.86107 -7.40336 22795 ft 490 kts 92°
2026-05-05 17:19 42.85759 -7.35686 23277 ft 496 kts 92°
2026-05-05 17:19 42.85407 -7.30990 23735 ft 501 kts 92°
2026-05-05 17:19 42.85052 -7.26241 24162 ft 504 kts 92°
2026-05-05 17:20 42.84711 -7.21536 24621 ft 507 kts 92°
2026-05-05 17:20 42.84366 -7.16735 25040 ft 510 kts 92°
2026-05-05 17:20 42.84021 -7.11911 25388 ft 514 kts 92°
2026-05-05 17:20 42.83668 -7.07029 25734 ft 518 kts 92°
2026-05-05 17:21 42.83311 -7.02125 26045 ft 521 kts 92°
2026-05-05 17:21 42.82950 -6.97205 26342 ft 523 kts 92°
2026-05-05 17:21 42.82585 -6.92276 26673 ft 524 kts 92°
2026-05-05 17:22 42.81846 -6.82401 27516 ft 524 kts 93°
2026-05-05 17:22 42.81471 -6.77459 27875 ft 525 kts 93°
2026-05-05 17:22 42.81094 -6.72491 28151 ft 528 kts 92°
2026-05-05 17:22 42.80714 -6.67512 28538 ft 529 kts 92°
2026-05-05 17:23 42.80331 -6.62530 28975 ft 528 kts 92°
2026-05-05 17:23 42.79946 -6.57562 29433 ft 528 kts 92°
2026-05-05 17:23 42.79559 -6.52575 29834 ft 529 kts 92°
2026-05-05 17:23 42.79169 -6.47591 30212 ft 530 kts 92°
2026-05-05 17:24 42.78779 -6.42628 30843 ft 523 kts 93°
2026-05-05 17:24 42.78391 -6.37733 31482 ft 517 kts 93°
2026-05-05 17:24 42.78004 -6.32873 31980 ft 515 kts 94°
2026-05-05 17:24 42.77621 -6.28092 32377 ft 515 kts 94°
2026-05-05 17:25 42.77231 -6.23245 32786 ft 515 kts 94°
2026-05-05 17:25 42.76969 -6.20002 33022 ft 514 kts 94°
2026-05-05 17:25 42.76449 -6.13565 33012 ft 515 kts 94°
2026-05-05 17:26 42.75660 -6.03918 33019 ft 511 kts 94°
2026-05-05 17:26 42.74869 -5.94357 33019 ft 507 kts 95°
2026-05-05 17:27 42.74072 -5.84814 33020 ft 506 kts 95°
2026-05-05 17:27 42.73270 -5.75302 33020 ft 507 kts 95°
2026-05-05 17:28 42.72459 -5.65781 33034 ft 507 kts 95°
2026-05-05 17:28 42.71637 -5.56231 33011 ft 508 kts 95°
2026-05-05 17:29 42.70809 -5.46689 32996 ft 508 kts 95°
2026-05-05 17:29 42.69976 -5.37128 32999 ft 509 kts 95°
2026-05-05 17:30 42.69144 -5.27573 33007 ft 510 kts 96°
2026-05-05 17:30 42.68308 -5.18052 33007 ft 510 kts 96°
2026-05-05 17:31 42.67458 -5.08479 32990 ft 511 kts 96°
2026-05-05 17:31 42.66599 -4.98890 33011 ft 511 kts 96°
2026-05-05 17:32 42.65709 -4.89317 32998 ft 511 kts 96°
2026-05-05 17:32 42.64805 -4.79738 32993 ft 512 kts 96°
2026-05-05 17:33 42.63906 -4.70143 32996 ft 511 kts 96°
2026-05-05 17:33 42.63003 -4.60569 32996 ft 511 kts 96°
2026-05-05 17:34 42.62091 -4.50999 33004 ft 511 kts 97°
2026-05-05 17:34 42.61171 -4.41434 33004 ft 511 kts 97°
2026-05-05 17:35 42.60241 -4.31861 33004 ft 511 kts 97°
2026-05-05 17:35 42.59305 -4.22309 33011 ft 511 kts 97°
2026-05-05 17:36 42.58362 -4.12760 33010 ft 511 kts 97°
2026-05-05 17:36 42.57415 -4.03243 33017 ft 511 kts 97°
2026-05-05 17:37 42.56454 -3.93697 33016 ft 511 kts 97°
2026-05-05 17:37 42.55484 -3.84150 33011 ft 510 kts 97°
2026-05-05 17:37 42.55006 -3.79461 32703 ft 495 kts 97°
2026-05-05 17:38 42.54535 -3.74861 31740 ft 493 kts 97°
2026-05-05 17:38 42.54053 -3.70179 30540 ft 498 kts 97°
2026-05-05 17:38 42.53577 -3.65565 29212 ft 502 kts 97°
2026-05-05 17:38 42.53091 -3.60870 27838 ft 502 kts 97°
2026-05-05 17:39 42.52604 -3.56193 26551 ft 500 kts 98°
2026-05-05 17:39 42.52118 -3.51549 25330 ft 495 kts 98°
2026-05-05 17:39 42.51637 -3.46958 24212 ft 488 kts 98°
2026-05-05 17:39 42.51163 -3.42459 23158 ft 474 kts 98°
2026-05-05 17:40 42.50707 -3.38144 21918 ft 451 kts 98°
2026-05-05 17:40 42.50270 -3.34022 20718 ft 434 kts 98°
2026-05-05 17:40 42.49846 -3.30046 19603 ft 419 kts 98°
2026-05-05 17:40 42.49605 -3.26184 18531 ft 406 kts 85°
2026-05-05 17:41 42.50218 -3.22534 17388 ft 392 kts 67°
2026-05-05 17:41 42.51508 -3.19364 16289 ft 379 kts 53°
2026-05-05 17:41 42.53006 -3.16562 15952 ft 352 kts 51°
2026-05-05 17:41 42.54408 -3.13974 15563 ft 332 kts 51°
2026-05-05 17:42 42.55761 -3.11462 14742 ft 329 kts 52°
2026-05-05 17:42 42.57048 -3.08983 13963 ft 311 kts 58°
2026-05-05 17:42 42.57657 -3.06246 12936 ft 302 kts 86°
2026-05-05 17:42 42.57643 -3.03449 11995 ft 292 kts 90°
2026-05-05 17:43 42.57598 -3.00734 11078 ft 284 kts 90°
2026-05-05 17:43 42.57551 -2.98088 10200 ft 278 kts 90°
2026-05-05 17:43 42.57845 -2.95559 9255 ft 270 kts 62°
2026-05-05 17:43 42.59067 -2.93696 8335 ft 266 kts 27°
2026-05-05 17:44 42.60795 -2.93075 7721 ft 252 kts
2026-05-05 17:44 42.62471 -2.92968 7414 ft 235 kts
2026-05-05 17:44 42.64094 -2.92856 6842 ft 233 kts
2026-05-05 17:44 42.65708 -2.92746 6288 ft 231 kts
2026-05-05 17:45 42.67245 -2.92624 6132 ft 212 kts
2026-05-05 17:45 42.68552 -2.91871 6002 ft 200 kts 33°
2026-05-05 17:45 42.69648 -2.90808 5919 ft 192 kts 31°
2026-05-05 17:45 42.70758 -2.89772 5676 ft 195 kts 32°
2026-05-05 17:46 42.71494 -2.89063 5503 ft 195 kts 32°
2026-05-05 17:46 42.72956 -2.87626 5146 ft 193 kts 33°
2026-05-05 17:46 42.73672 -2.86918 4988 ft 191 kts 33°
2026-05-05 17:46 42.74744 -2.85854 4729 ft 191 kts 33°
2026-05-05 17:47 42.76129 -2.84479 4398 ft 179 kts 33°
2026-05-05 17:47 42.77113 -2.83504 4147 ft 170 kts 33°
2026-05-05 17:47 42.77738 -2.82884 3991 ft 166 kts 34°
2026-05-05 17:47 42.78652 -2.81980 3770 ft 164 kts 34°
2026-05-05 17:48 42.79578 -2.81063 3563 ft 167 kts 33°
2026-05-05 17:48 42.80517 -2.80133 3344 ft 164 kts 33°
2026-05-05 17:48 42.81431 -2.79228 3104 ft 161 kts 33°
2026-05-05 17:48 42.82348 -2.78319 2872 ft 165 kts 34°
2026-05-05 17:49 42.83284 -2.77393 2618 ft 165 kts 35°
2026-05-05 17:49 42.84184 -2.76499 2382 ft 155 kts 34°
2026-05-05 17:49 42.85029 -2.75663 2197 ft 143 kts 34°
2026-05-05 17:49 42.85801 -2.74893 1995 ft 133 kts 33°
2026-05-05 17:50 42.86537 -2.74159 1817 ft 128 kts 32°
2026-05-05 17:50 42.87259 -2.73451 1668 ft 122 kts 31°
2026-05-05 17:50 42.87872 -2.72857 1668 ft 89 kts 36°
2026-05-05 17:50 42.88255 -2.72479 1679 ft 55 kts 37°
2026-05-05 17:51 42.88559 -2.72196 1683 ft 46 kts 23°
2026-05-05 17:51 42.88744 -2.72194 1683 ft 18 kts 318°
2026-05-05 17:51 42.88710 -2.72331 1680 ft 18 kts 220°
2026-05-05 17:51 42.88588 -2.72451 1675 ft 26 kts 215°
2026-05-05 17:52 42.88427 -2.72609 1677 ft 30 kts 216°
2026-05-05 17:52 42.88252 -2.72782 1674 ft 32 kts 214°
2026-05-05 17:52 42.88063 -2.72969 1672 ft 36 kts 216°
2026-05-05 17:52 42.87870 -2.73158 1672 ft 27 kts 215°
2026-05-05 17:53 42.87758 -2.73279 1665 ft 13 kts 244°
2026-05-05 17:53 42.87796 -2.73388 1669 ft 14 kts 307°
2026-05-05 17:53 42.87819 -2.73459 1665 ft 5 kts 253°
2026-05-05 17:53 42.87776 -2.73511 1665 ft 14 kts 216°
2026-05-05 17:54 42.87688 -2.73608 1664 ft 18 kts 216°
2026-05-05 17:54 42.87634 -2.73664 1674 ft 1 kts 240°
2026-05-05 17:54 42.87643 -2.73680 1668 ft 4 kts 317°
2026-05-05 17:54 42.87667 -2.73682 1668 ft 3 kts 35°
2026-05-05 17:55 42.87672 -2.73665 1675 ft 0 kts 73°